Wind_Speed
22 24 28 30 33 33 34 35 36 36 37 38 39 41 45 46 45 40 41 42 42 43 38 36 34 37 36 34 32 32 32 28 25 27 28 35 38 37 36 35 34 33 36 36 34
23 24 27 28 34 35 35 36 37 34 36 37 37 39 41 44 43 40 42 41 42 45 38 35 36 37 37 34 33 32 30 23 22 25 32 37 39 40 39 37 37 36 34 35 37
27 26 27 31 34 37 36 36 36 34 34 35 35 35 36 39 41 41 43 41 42 45 40 36 36 37 37 34 33 32 28 27 26 27 31 35 38 41 42 38 35 36 37 34 33
28 29 28 28 31 38 35 36 37 36 34 33 35 34 36 39 41 40 41 41 42 44 43 37 37 37 38 34 32 30 28 28 25 28 28 32 36 36 40 33 34 33 33 32 33
35 33 32 30 30 34 36 35 37 36 34 33 34 33 35 36 38 38 40 41 41 43 43 38 37 39 37 34 31 29 25 25 25 26 27 30 30 33 37 34 34 32 31 30 30
39 38 37 34 34 32 36 33 38 37 35 34 34 33 34 35 37 37 39 40 41 42 42 39 38 39 37 35 31 28 25 25 25 25 26 29 31 38 31 36 37 38 34 32 30
44 44 43 41 38 37 35 34 38 38 36 35 34 33 35 33 35 37 39 40 41 41 41 39 38 39 36 35 32 30 27 25 24 25 24 28 29 30 34 42 42 40 37 35 32
51 47 49 46 42 39 40 37 35 39 36 37 35 34 34 32 33 36 38 39 38 37 38 37 37 36 36 34 32 32 29 28 24 24 26 26 24 29 33 39 45 49 45 41 39
59 58 55 51 49 44 43 40 37 39 37 38 36 33 34 29 29 34 36 36 36 36 36 36 36 35 34 33 32 32 29 28 28 28 27 26 27 24 29 34 39 43 52 49 44
68 61 59 57 54 50 46 43 44 39 39 36 36 35 34 29 28 29 29 30 32 33 33 33 32 32 32 30 30 30 29 28 28 28 28 29 32 28 29 31 32 37 42 52 50
56 55 49 56 58 57 46 38 48 44 38 33 37 36 33 31 29 28 26 26 27 28 28 29 29 28 28 28 27 26 27 29 29 30 32 33 38 37 33 34 34 35 40 44 53
45 41 44 50 62 61 49 48 45 38 40 39 39 39 35 34 31 28 26 24 24 24 25 26 26 25 25 25 26 27 29 32 35 37 40 42 42 44 44 43 41 40 40 43 46
22 25 35 48 60 60 54 52 44 43 41 43 38 39 37 35 32 28 26 25 25 25 25 25 24 24 25 26 27 30 34 37 41 44 48 51 50 50 52 48 43 42 42 43 46
25 22 29 44 50 62 64 44 44 36 44 44 40 39 38 36 34 31 28 26 25 25 25 25 25 26 27 29 33 36 39 44 48 52 54 54 61 57 55 51 49 46 47 46 47
24 36 21 38 42 55 57 50 40 35 44 42 45 38 37 37 33 32 30 28 27 26 26 27 27 28 31 34 37 39 44 48 51 55 58 59 65 62 60 58 55 53 53 50 51
26 20 18 34 41 62 54 38 44 37 44 39 43 40 34 34 34 32 30 29 27 25 25 26 27 30 34 37 41 45 47 49 52 56 62 62 67 63 59 59 58 56 55 54 54
22 19 12 32 54 72 49 42 42 39 38 40 36 40 35 31 31 30 28 25 25 25 26 27 29 32 32 36 39 42 45 50 54 55 58 58 64 61 58 61 61 63 60 58 54
23 16 10 33 62 67 47 41 45 44 39 34 34 36 37 34 31 29 26 25 26 27 28 29 27 26 29 32 35 39 40 39 40 44 44 42 36 24 32 51 61 68 67 60 55
17 13 16 40 64 64 51 39 41 39 33 28 33 30 30 34 31 28 27 28 28 27 27 25 22 23 24 27 29 33 33 39 46 49 52 52 45 39 28 33 39 47 62 64 54
16 2 27 47 76 61 37 32 35 34 29 28 28 29 25 26 26 27 27 25 25 24 22 21 22 19 22 26 32 35 38 39 44 50 51 50 46 43 42 41 46 40 27 52 51
5 8 34 58 74 49 41 38 37 33 29 26 27 30 29 25 25 23 23 23 22 20 21 19 19 18 20 28 34 37 37 40 42 50 51 47 36 35 35 38 33 34 27 29 39
4 16 44 67 50 49 47 38 31 29 24 23 25 33 31 26 26 25 22 19 19 19 15 16 17 16 22 27 28 33 34 37 39 43 39 38 28 28 28 29 26 27 26 29 36
16 33 50 51 50 51 46 34 27 25 22 21 28 30 34 32 30 24 19 19 19 15 14 14 13 21 20 24 27 28 24 30 37 39 40 40 26 27 26 23 26 28 34 29 39
28 48 52 40 37 45 38 30 29 24 22 27 32 34 33 31 26 20 19 20 16 15 14 14 16 17 15 14 21 23 24 25 29 31 30 26 14 16 21 24 29 33 36 31 36
31 37 37 35 25 28 31 25 19 18 22 26 32 33 32 27 23 19 20 16 16 16 14 12 16 13 16 17 19 25 28 24 25 26 26 20 9 10 18 22 26 25 27 29 28
20 33 31 24 25 28 27 19 18 17 20 26 31 29 23 19 19 19 17 15 15 15 10 11 11 10 9 14 14 15 15 17 19 19 24 19 17 13 8 6 14 25 25 22 24
32 27 30 29 29 28 23 17 13 16 20 24 23 19 19 18 19 16 14 16 15 10 8 6 1 2 6 8 11 11 14 16 22 20 15 15 13 10 8 8 8 18 21 17 24
Wind_Direction
285 266 251 259 255 251 248 243 243 246 249 245 243 243 241 242 242 242 242 241 241 234 229 239 243 248 246 244 248 249 250 253 253 240 233 238 246 247 246 247 248 249 245 244 242
268 272 266 255 246 250 246 245 243 243 248 248 245 242 241 240 240 238 240 240 238 234 227 232 240 246 245 244 244 247 250 251 246 234 230 230 241 249 251 249 249 252 250 245 242
276 268 261 259 251 243 246 244 242 245 246 248 247 242 239 238 236 235 236 238 239 235 231 231 238 244 242 243 245 245 250 247 245 241 238 234 237 246 251 252 251 250 252 252 251
275 266 267 262 260 251 248 244 242 244 244 245 244 244 240 239 238 234 233 235 238 235 235 231 236 239 237 239 242 244 246 246 242 243 242 239 242 245 252 255 251 249 251 254 253
284 275 267 261 264 259 254 248 240 243 241 241 240 239 241 238 235 231 232 233 234 235 233 232 232 234 234 235 237 240 240 241 239 236 236 236 238 247 249 249 252 252 254 258 258
280 274 271 263 258 261 255 254 243 242 238 236 236 235 239 237 234 231 229 230 231 232 233 232 230 231 231 232 234 239 236 237 237 237 236 238 236 249 245 252 253 254 255 255 253
276 273 268 265 257 252 258 249 243 240 237 233 232 232 236 236 233 228 225 225 227 226 228 228 227 227 228 229 233 237 240 241 241 240 239 241 239 255 238 249 254 256 255 254 250
274 270 265 259 251 248 248 242 246 237 236 231 230 230 234 232 231 228 223 222 224 224 226 226 227 225 226 228 231 235 239 242 244 242 242 246 248 248 248 249 251 253 253 249 249
273 266 260 253 246 240 239 239 239 233 233 229 226 227 229 228 228 225 221 221 221 221 223 224 226 225 226 227 229 234 238 240 240 243 247 252 259 252 251 252 254 255 253 251 248
287 270 254 246 238 231 231 231 233 230 230 227 225 224 225 224 223 222 218 217 218 219 219 222 224 226 227 228 229 232 238 244 250 252 251 253 257 255 253 257 263 262 261 250 249
282 269 254 236 226 220 218 223 230 226 227 228 224 223 220 220 220 216 210 211 215 216 217 218 220 224 229 232 236 241 246 252 254 257 256 259 260 268 265 266 266 264 260 255 249
287 265 246 226 217 211 199 213 226 224 221 219 221 217 217 216 218 217 212 211 214 214 215 218 223 229 236 240 245 249 252 255 256 258 261 260 259 269 275 273 264 260 259 256 251
307 262 230 219 214 202 187 202 214 223 222 219 218 216 215 216 216 218 218 216 218 220 224 227 229 239 244 249 255 261 264 267 268 268 269 268 258 264 268 267 265 262 259 258 253
1 331 226 211 212 195 187 200 212 219 221 215 214 216 212 215 216 218 222 223 224 228 233 238 243 249 256 265 268 270 271 272 273 273 272 270 269 266 266 261 260 261 259 256 253
344 337 258 206 204 193 184 189 195 211 218 215 213 213 212 215 216 219 223 226 229 235 242 248 255 262 268 270 273 275 273 273 274 275 273 272 272 270 267 265 262 260 257 254 252
324 285 265 203 188 178 172 181 188 209 217 215 213 214 211 214 216 220 222 228 234 239 245 253 261 267 270 273 275 277 281 281 279 278 276 275 274 269 271 268 264 257 254 251 249
336 320 242 200 178 176 171 180 191 203 209 213 211 212 212 212 215 219 222 226 234 244 249 257 264 269 278 283 283 283 282 282 281 281 280 279 276 277 270 265 260 261 253 248 247
332 326 218 182 181 184 170 173 189 196 206 211 211 210 212 214 216 220 225 231 238 245 252 258 264 275 273 276 283 286 285 286 289 290 289 287 289 291 271 262 256 253 251 247 244
324 312 177 176 174 173 168 171 184 196 197 202 207 208 210 216 219 222 228 233 239 245 252 260 266 266 270 287 296 292 285 283 288 289 288 289 282 275 269 282 272 258 249 248 240
349 243 165 172 168 167 170 172 185 186 195 198 197 203 203 204 208 215 220 227 234 243 255 262 268 276 283 287 296 295 293 296 297 294 292 290 288 283 270 275 269 285 269 241 236
34 163 165 171 171 163 171 181 181 190 186 193 196 200 205 203 202 215 221 224 236 248 254 275 282 287 288 286 293 294 298 298 295 294 298 296 287 277 266 273 270 275 251 227 225
137 155 161 164 164 163 168 183 175 188 194 198 197 202 209 211 216 221 234 241 241 250 272 279 273 286 289 291 290 292 297 292 294 299 304 296 280 283 270 267 255 248 241 235 203
138 156 157 151 166 162 168 178 178 188 199 200 200 202 208 217 224 231 237 243 249 263 272 257 289 291 290 287 285 291 294 294 306 301 294 296 289 293 284 263 243 233 239 238 211
130 153 154 152 144 163 164 166 176 186 191 196 197 203 208 215 221 228 237 247 258 267 236 264 288 292 289 290 290 296 298 301 315 317 317 300 281 270 258 240 229 227 230 232 215
103 149 148 142 146 162 168 168 190 191 197 195 195 202 209 219 225 225 232 249 260 237 243 266 287 282 298 309 304 299 299 299 311 320 320 326 303 249 236 225 240 223 225 217 217
121 136 147 157 160 165 161 166 179 193 191 191 196 201 204 206 211 222 240 248 244 224 243 270 271 288 301 307 310 313 308 301 307 310 312 317 325 313 307 285 261 233 206 208 211
137 151 155 156 162 167 167 187 198 195 189 188 192 189 186 197 210 223 237 239 220 228 249 238 41 356 342 343 358 342 332 325 313 322 292 308 327 315 288 245 245 183 183 189 176
Height
5695 5696 5696 5697 5699 5699 5701 5704 5707 5710 5712 5715 5719 5723 5727 5732 5737 5741 5744 5749 5753 5757 5759 5763 5768 5772 5774 5775 5778 5778 5778 5781 5787 5789 5793 5791 5791 5793 5796 5798 5799 5802 5804 5808 5810
5689 5688 5689 5689 5692 5692 5693 5695 5699 5700 5704 5706 5710 5713 5717 5722 5727 5731 5735 5741 5745 5750 5750 5755 5761 5764 5767 5769 5771 5771 5772 5777 5780 5781 5782 5784 5784 5786 5790 5792 5794 5796 5798 5801 5803
5683 5682 5681 5680 5681 5684 5685 5687 5690 5692 5695 5698 5701 5704 5708 5712 5717 5721 5725 5732 5736 5741 5745 5748 5753 5757 5759 5762 5764 5765 5768 5769 5772 5774 5775 5778 5779 5778 5781 5784 5790 5790 5790 5794 5796
5675 5674 5673 5672 5671 5672 5674 5677 5680 5683 5686 5689 5693 5696 5699 5704 5709 5712 5716 5722 5728 5733 5738 5740 5745 5749 5752 5755 5757 5759 5760 5762 5765 5767 5769 5771 5772 5774 5774 5781 5780 5783 5784 5787 5789
5662 5662 5662 5662 5662 5662 5664 5667 5670 5675 5677 5681 5685 5688 5692 5696 5700 5704 5707 5712 5719 5725 5730 5733 5737 5741 5744 5748 5751 5752 5754 5756 5758 5761 5763 5764 5768 5768 5768 5773 5774 5777 5779 5781 5783
5651 5650 5650 5651 5652 5653 5654 5658 5661 5665 5669 5673 5678 5680 5684 5689 5692 5696 5701 5704 5711 5716 5722 5726 5729 5734 5737 5741 5744 5747 5748 5750 5752 5754 5756 5758 5761 5755 5767 5766 5766 5768 5772 5775 5776
5637 5636 5637 5638 5640 5642 5644 5648 5651 5657 5661 5665 5669 5673 5678 5681 5685 5690 5693 5696 5702 5708 5713 5718 5722 5726 5731 5733 5736 5740 5742 5743 5746 5748 5749 5750 5752 5752 5761 5756 5758 5761 5764 5766 5769
5619 5620 5620 5624 5627 5630 5634 5638 5641 5647 5652 5657 5662 5666 5671 5675 5678 5684 5687 5690 5696 5701 5706 5711 5715 5719 5722 5726 5729 5731 5735 5737 5739 5740 5741 5743 5747 5747 5749 5751 5751 5750 5752 5756 5759
5594 5595 5599 5605 5611 5618 5623 5627 5632 5638 5644 5650 5655 5659 5665 5669 5672 5678 5681 5684 5689 5695 5699 5704 5708 5712 5715 5718 5721 5725 5727 5729 5730 5731 5733 5736 5737 5741 5742 5741 5742 5742 5742 5745 5750
5556 5561 5569 5579 5591 5601 5610 5617 5621 5628 5635 5642 5647 5653 5659 5663 5668 5673 5676 5679 5683 5689 5693 5698 5703 5707 5709 5710 5715 5716 5718 5720 5722 5724 5725 5727 5728 5732 5733 5734 5734 5734 5734 5736 5740
5526 5526 5537 5550 5567 5582 5596 5604 5607 5617 5628 5635 5640 5645 5651 5657 5663 5669 5670 5673 5678 5683 5688 5692 5697 5700 5701 5704 5707 5709 5710 5711 5713 5714 5715 5717 5718 5720 5723 5724 5726 5725 5725 5726 5728
5500 5502 5512 5525 5542 5562 5578 5586 5600 5613 5616 5622 5630 5636 5643 5650 5657 5662 5666 5671 5674 5679 5683 5688 5691 5693 5696 5699 5699 5700 5702 5703 5704 5704 5704 5707 5712 5710 5712 5714 5714 5715 5715 5716 5718
5489 5487 5494 5507 5520 5543 5563 5577 5593 5600 5607 5614 5622 5629 5637 5645 5651 5656 5662 5666 5670 5674 5677 5682 5686 5688 5690 5691 5693 5693 5694 5694 5694 5693 5693 5693 5699 5700 5701 5702 5703 5703 5705 5705 5705
5485 5484 5485 5495 5509 5530 5550 5571 5581 5591 5597 5606 5615 5622 5631 5639 5645 5650 5656 5662 5666 5670 5673 5677 5679 5681 5683 5685 5684 5685 5685 5683 5682 5681 5680 5682 5678 5688 5688 5692 5692 5692 5691 5692 5692
5483 5483 5481 5488 5499 5521 5547 5562 5573 5582 5588 5599 5607 5616 5625 5633 5641 5646 5651 5656 5661 5665 5669 5672 5673 5674 5676 5675 5675 5676 5674 5673 5670 5667 5665 5669 5659 5675 5674 5676 5679 5676 5675 5676 5678
5479 5474 5475 5481 5495 5517 5535 5551 5564 5572 5580 5592 5601 5610 5619 5628 5634 5640 5645 5651 5655 5659 5663 5664 5666 5668 5667 5665 5665 5664 5662 5660 5657 5653 5649 5651 5642 5656 5657 5656 5656 5657 5657 5659 5662
5473 5468 5469 5477 5491 5506 5525 5541 5555 5564 5577 5588 5597 5607 5615 5623 5629 5635 5640 5646 5650 5653 5656 5657 5659 5659 5659 5657 5656 5653 5650 5646 5641 5637 5636 5631 5624 5638 5641 5634 5636 5631 5637 5643 5647
5469 5465 5465 5475 5482 5497 5516 5534 5548 5561 5574 5584 5593 5601 5610 5617 5624 5630 5636 5640 5643 5646 5649 5650 5653 5653 5651 5650 5648 5645 5641 5637 5628 5623 5622 5617 5619 5621 5618 5613 5612 5610 5614 5622 5630
5465 5461 5462 5471 5485 5501 5520 5532 5544 5560 5574 5582 5590 5598 5605 5613 5620 5626 5630 5634 5637 5640 5643 5644 5646 5645 5644 5642 5640 5635 5631 5625 5618 5615 5605 5607 5610 5610 5608 5602 5595 5589 5592 5601 5617
5462 5460 5463 5473 5486 5508 5521 5533 5546 5560 5570 5578 5587 5595 5602 5609 5615 5619 5624 5629 5631 5634 5636 5637 5638 5639 5638 5635 5631 5625 5621 5617 5610 5601 5592 5592 5589 5590 5590 5588 5581 5580 5581 5586 5598
5464 5464 5468 5476 5492 5508 5522 5535 5548 5560 5569 5577 5585 5592 5599 5605 5610 5615 5619 5623 5626 5628 5629 5630 5631 5634 5632 5627 5621 5616 5612 5606 5598 5589 5581 5576 5576 5572 5575 5572 5570 5572 5573 5576 5581
5466 5469 5474 5488 5502 5512 5526 5538 5550 5561 5568 5575 5582 5589 5595 5602 5606 5610 5614 5618 5621 5623 5625 5625 5626 5627 5625 5618 5613 5608 5605 5597 5588 5581 5568 5563 5562 5561 5561 5560 5560 5562 5565 5566 5568
5472 5474 5483 5500 5511 5521 5532 5543 5553 5561 5568 5574 5580 5586 5593 5598 5603 5606 5610 5613 5615 5618 5620 5621 5622 5618 5617 5613 5607 5603 5599 5590 5580 5570 5561 5553 5552 5550 5549 5550 5551 5551 5555 5556 5558
5483 5488 5497 5508 5517 5529 5538 5547 5556 5561 5566 5571 5577 5583 5588 5594 5599 5604 5606 5609 5612 5613 5616 5616 5615 5612 5611 5607 5601 5597 5591 5584 5575 5563 5552 5545 5543 5541 5540 5539 5540 5542 5545 5549 5550
5497 5504 5512 5520 5526 5533 5542 5549 5555 5560 5564 5570 5574 5579 5586 5592 5596 5600 5603 5606 5608 5610 5611 5611 5610 5607 5605 5602 5597 5590 5584 5579 5571 5562 5553 5547 5538 5537 5534 5531 5532 5536 5541 5545 5547
5509 5513 5519 5524 5529 5538 5545 5551 5555 5558 5562 5567 5572 5578 5585 5589 5594 5597 5599 5602 5604 5607 5606 5607 5606 5604 5601 5598 5593 5587 5578 5574 5568 5560 5554 5548 5542 5537 5535 5534 5534 5536 5539 5544 5548
5520 5523 5527 5530 5536 5544 5548 5552 5556 5560 5564 5567 5573 5579 5583 5587 5591 5594 5596 5598 5601 5603 5603 5603 5602 5601 5599 5595 5590 5584 5578 5572 5566 5560 5554 5549 5546 5542 5538 5537 5535 5537 5538 5543 5551